Regional Weather Roundup
Issued by NWS Little Rock, AR

Home | Current Version | Previous Version | Text Only | Print | Product List | Glossary Off
Versions: 1 2 3 4 5 6 7 8 9 10 11 12 13 14 15 16 17 18 19 20 21 22 23 24 25 26 27 28 29 30 31 32 33 34 35 36 37 38 39 40 41 42 43 44 45 46 47 48 49 50

000
ASUS44 KLZK 272105
RWRLZK

WEATHER ROUNDUP FOR ARKANSAS
NATIONAL WEATHER SERVICE LITTLE ROCK AR
400 PM CDT THU AUG 27 2015

NOTE: "FAIR" INDICATES FEW OR NO CLOUDS BELOW 12,000 FEET WITH NO
SIGNIFICANT WEATHER AND/OR OBSTRUCTIONS TO VISIBILITY.

ARZ001-003-010-029-272200-
NORTHWEST ARKANSAS

CITY           SKY/WX    TMP DP  RH WIND       PRES   REMARKS
FAYETTEVILLE   FAIR      79  67  66 SE7       30.08F
FORT SMITH     FAIR      78  62  57 E6        30.05F
BENTONVILLE    FAIR      81  64  57 SE7       30.08F
ROGERS         FAIR      78  65  63 SE7       30.09F
SILOAM SPGS    FAIR      77  63  61 E6        30.06F
HIGHFILL       FAIR      80  66  62 E7        30.08F
SPRINGDALE     MOSUNNY   79  64  61 SE6       30.10F
$$

ARZ004-005-016-272200-
NORTH CENTRAL ARKANSAS

CITY           SKY/WX    TMP DP  RH WIND       PRES   REMARKS
BATESVILLE     FAIR      81  59  47 CALM      30.09F
FLIPPIN        FAIR      82  59  44 NE6       30.08F
MTN HOME       FAIR      78  61  55 E7        30.10F
$$

ARZ040-041-272200-
WEST CENTRAL ARKANSAS

CITY           SKY/WX    TMP DP  RH WIND       PRES   REMARKS
MENA           FAIR      82  63  51 NE3       30.08F
MOUNT IDA      FAIR      84  62  47 VRB6      30.05F HX  85
$$

ARZ009-017-025-026-028-272200-
NORTHEAST ARKANSAS

CITY           SKY/WX    TMP DP  RH WIND       PRES   REMARKS
JONESBORO      FAIR      80  61  52 N8        30.09F
NEWPORT        FAIR      80  59  48 N3        30.10F
WALNUT RIDGE   FAIR      81  55  41 E7        30.09F
BLYTHEVILLE    FAIR      81  59  47 NE7       30.09F
NW BLYTHEVILLE MOSUNNY   82  57  42 NW5       30.09F
$$

ARZ022-023-033-042-044-272200-
CENTRAL ARKANSAS

CITY           SKY/WX    TMP DP  RH WIND       PRES   REMARKS
LITTLE ROCK    CLOUDY    85  56  37 NE10      30.06F
N LITTLE ROCK  CLOUDY    83  62  48 N6        30.06F
JACKSONVILLE   FAIR      84  58  41 NE8       30.06F
SEARCY         FAIR      82  61  48 E8        30.09F
HOT SPRINGS    FAIR      83  61  47 SE5       30.06F
RUSSELLVILLE   FAIR      80  62  54 S3        30.07F
$$

ARZ036-272200-
EAST ARKANSAS

CITY           SKY/WX    TMP DP  RH WIND       PRES   REMARKS
WEST MEMPHIS   FAIR      83  59  44 N8        30.06F
$$

ARZ050-053-066-070-073-272200-
SOUTHWEST ARKANSAS

CITY           SKY/WX    TMP DP  RH WIND       PRES   REMARKS
ARKADELPHIA    FAIR      87  63  44 CALM      30.05F HX  88
CAMDEN         FAIR      84  59  42 NE7       30.04F
TEXARKANA      FAIR      86  60  41 SE5       30.04F HX  86
EL DORADO      FAIR      85  62  46 MISG      30.06F HX  85
DE QUEEN       FAIR      83  63  50 SE6       30.03F
$$

ARZ056-057-069-272200-
SOUTHEAST ARKANSAS

CITY           SKY/WX    TMP DP  RH WIND       PRES   REMARKS
PINE BLUFF     FAIR      82  58  43 N8        30.07F
STUTTGART      FAIR      82  59  44 N10       30.07F
MONTICELLO     FAIR      85  57  38 VRB7      30.05F

$$





USA.gov is the U.S. government's official web portal to all federal, state and local government web resources and services.